Location: Jangalapalle
(16.8036°N, 80.6370°E)
Time: 11:05:24
(UTC+00:00)

GP-B - Pass Details

Date: 05 August 2024
Orbit: 623 x 628 km, 89.8° (Epoch: 08 September)

Event Time Altitude Azimuth Distance (km) Brightness Sun altitude
Rises 13:22:24 0° 15° (NNE) 2,901 6.6 -4.1°
Reaches altitude 10° 13:24:44 10° 23° (NNE) 1,993 5.6 -4.6°
Maximum altitude 13:28:47 37° 91° (E) 965 3.6 -5.6°
Drops below altitude 10° 13:32:50 10° 160° (SSE) 1,986 5.3 -6.5°
Sets 13:35:10 0° 168° (SSE) 2,891 6.2 -7.0°
